User: anonymous   Login
Location: Bushey
(51.6333°N, 0.3667°W)
Time: 15:57:00
(UTC+00:00)
Language:

FALCON 9 DEB - Orbit

View from above orbital plane
View from above orbital plane
View from above satellite
View from above satellite

Ground track
Ground track

The orbit data is extracted from the following two-line orbital elements,

1 46084U 20055BK  21125.63775621  .00010626  00000-0  11890-3 0  9999
2 46084  53.0141  48.6049 0014290 105.2523 255.0071 15.63270048 46964
Epoch (UTC): 05 May 2021 15:18:22
Eccentricity: 0.0014290
inclination: 53.0141°
perigee height: 368 km
apogee height: 388 km
right ascension of ascending node: 48.6049°
argument of perigee: 105.2523°
revolutions per day: 15.63270048
mean anomaly at epoch: 255.0071°
orbit number at epoch: 4696

The dashed part of the orbit path shows where the satellite is in the earth's shadow,  

DLR